Regional Weather Roundup
Issued by NWS

Home | Current Version | Previous Version | Graphics & Text | Print | Product List | Glossary On
Versions: 1 2 3 4 5 6 7 8 9 10 11 12 13 14 15 16 17 18 19 20 21 22 23 24 25 26 27 28 29 30 31 32 33 34 35 36 37 38 39 40 41 42 43 44 45 46 47 48 49 50
000
ASUS44 KMEG 172000
RWRTN
TENNESSEE HOURLY STATE WEATHER ROUNDUP
NATIONAL WEATHER SERVICE MEMPHIS TN
300 PM CDT THU AUG 17 2017

TNZ002-004-019-021-049-052-054-088>092-172100-
WEST TENNESSEE

CITY           SKY/WX    TMP DP  RH WIND       PRES   REMARKS
MEMPHIS INTL   TSTM      81  79  94 SW7       29.94R VSB 3/4 HX  90
NWS MEMPHIS      N/A     87 N/A N/A MISG        N/A
JACKSON        CLOUDY    87  78  74 SW14      29.94F HX 100
DYERSBURG      CLOUDY    86  76  71 SW13      29.93F HX  96
$$

TNZ008-025-027-028-033-062-065-066-172100-
NORTH MIDDLE TENNESSEE

CITY           SKY/WX    TMP DP  RH WIND       PRES   REMARKS
NASHVILLE      PTSUNNY   90  71  53 SW8G17    29.96F HX  96
CLARKSVILLE    MOSUNNY   85  74  69 SW12G23   29.92F HX  92
SMYRNA         PTSUNNY   88  73  61 SW10      29.97F HX  95
CROSSVILLE     MOSUNNY   82  68  62 W9        30.06F
$$

TNZ061-075-076-078-094-096-097-172100-
SOUTH MIDDLE TENNESSEE

CITY           SKY/WX    TMP DP  RH WIND       PRES   REMARKS
WINCHESTER     SUNNY     88  73  62 SW10      30.01F HX  96
$$

TNZ017-018-042-046-047-172100-
NORTHEAST TENNESSEE

CITY           SKY/WX    TMP DP  RH WIND       PRES   REMARKS
TRI CITIES     MOSUNNY   87  73  62 W10       30.01F HX  94
$$

TNZ012-013-036-069-073-074-172100-
CENTRAL EAST TENNESSEE

CITY           SKY/WX    TMP DP  RH WIND       PRES   REMARKS
KNOXVILLE      PTSUNNY   88  71  57 SW14G22   29.98F HX  94
OAK RIDGE      MOSUNNY   87  71  58 VRB6      30.00F HX  93
GATLINBURG     SUNNY     93  70  46 W9        29.98F HX  99
$$

TNZ083-085-099-172100-
SOUTHEAST TENNESSEE

CITY           SKY/WX    TMP DP  RH WIND       PRES   REMARKS
CHATTANOOGA    MOSUNNY   91  70  49 SW10G20   30.00F HX  96
$$

SKY/WX REPORTED AS FAIR MEANS FEW OR NO CLOUDS BELOW
12 THOUSAND FEET.





USA.gov is the U.S. government's official web portal to all federal, state and local government web resources and services.